De Queen, AR

11:21 PM CDT on June 25, 2017 (GMT -0500)
Helms Sevier County

Weather History for KDEQ - January, 2012

Change the Weather History Date:

Monday, January 9, 2012

  Actual Average Record
Temperature  
Mean Temperature 48 °F 42 °F  
Max Temperature 51 °F 53 °F 81 °F (1957)
Min Temperature 44 °F 30 °F 2 °F (1944)
Degree Days  
Heating Degree Days 17 24  
Month to date heating degree days 186 210  
Since 1 July heating degree days 1275 1419  
Cooling Degree Days 0 0  
Month to date cooling degree days 0 0  
Year to date cooling degree days 0 0  
Moisture  
Dew Point 43 °F    
Average Humidity 83    
Maximum Humidity 92    
Minimum Humidity 74    
Precipitation  
Precipitation 0.30 in 0.10 in 2.83 in (1965)
Month to date precipitation 0.30 0.99  
Year to date precipitation 0.30 0.99  
Snow  
Snow 0.00 in - - ()
Month to date snowfall 0.0  
Since 1 July snowfall 0.0  
Snow Depth 0.00 in    
Sea Level Pressure  
Sea Level Pressure 30.12 in    
Wind  
Wind Speed 5 mph (NNE)    
Max Wind Speed 14 mph    
Max Gust Speed 16 mph    
Visibility 9 miles    
Events Rain    
T = Trace of Precipitation, MM = Missing Value Source: NWS Daily Summary

Daily Weather History Graph

Daily Weather History Graph

Search for Another Location

Airport or City:

Trip Planner

Search our weather history database for the weather conditions in past years. The results will help you decide how hot, cold, wet, or windy it might be!

Date:

Astronomy

Jan. 09, 2012 Rise Set
Actual Time 7:23 AM CST 5:25 PM CST
Civil Twilight 6:56 AM CST 5:52 PM CST
Nautical Twilight 6:25 AM CST 6:23 PM CST
Astronomical Twilight 5:55 AM CST 6:54 PM CST
Moon 6:09 PM CST (1/9) 7:26 AM CST (1/9)
Length of Visible Light 10h 56m
Length of Day
10h 01m
Full, 100% of the Moon is Illuminated
Jan 9
Full
Jan 16
Last Quarter
Jan 23
New
Jan 30
First Quarter
Feb 7
Full

Hourly Weather History & Observations

Time (CST) Temp. Windchill Dew Point Humidity Pressure Visibility Wind Dir Wind Speed Gust Speed Precip Events Conditions
12:53 AM 46.9 °F - 43.0 °F 86% 30.12 in 10.0 mi NNE 5.8 mph - N/A   Mostly Cloudy
1:53 AM 46.0 °F - 42.1 °F 86% 30.13 in 10.0 mi Calm Calm - N/A   Overcast
2:27 AM 46.4 °F 44.3 °F 41.0 °F 81% 30.12 in 10.0 mi North 4.6 mph - N/A   Overcast
2:53 AM 46.9 °F - 41.0 °F 80% 30.10 in 10.0 mi NE 8.1 mph - 0.00 in Rain Light Rain
3:53 AM 46.0 °F - 42.1 °F 86% 30.14 in 10.0 mi Calm Calm - 0.00 in Rain Light Rain
4:53 AM 45.0 °F 43.5 °F 43.0 °F 93% 30.17 in 2.5 mi West 3.5 mph - 0.08 in Rain Heavy Rain
5:00 AM 44.6 °F 43.1 °F 42.8 °F 93% 30.16 in 2.5 mi NW 3.5 mph - 0.03 in Rain Heavy Rain
5:11 AM 44.6 °F 42.2 °F 42.8 °F 93% 30.15 in 5.0 mi North 4.6 mph - 0.06 in Rain Light Rain
5:53 AM 45.0 °F - 43.0 °F 93% 30.16 in 8.0 mi Calm Calm - 0.17 in Rain Light Rain
6:08 AM 44.6 °F 42.2 °F 42.8 °F 93% 30.18 in 6.0 mi West 4.6 mph - 0.02 in Rain Light Rain
6:53 AM 45.0 °F - 43.0 °F 93% 30.17 in 8.0 mi Calm Calm - 0.05 in Rain Light Rain
7:29 AM 44.6 °F 41.4 °F 42.8 °F 93% 30.17 in 7.0 mi East 5.8 mph - 0.00 in Rain Light Rain
7:53 AM 45.0 °F 40.1 °F 43.0 °F 93% 30.13 in 8.0 mi East 9.2 mph - 0.00 in Rain Light Rain
8:25 AM 44.6 °F 40.7 °F 42.8 °F 93% 30.11 in 7.0 mi North 6.9 mph - 0.00 in Rain Light Rain
8:38 AM 44.6 °F 38.8 °F 42.8 °F 93% 30.11 in 8.0 mi North 11.5 mph - 0.00 in   Overcast
8:53 AM 45.0 °F 39.7 °F 43.0 °F 93% 30.12 in 8.0 mi North 10.4 mph - 0.00 in   Overcast
9:24 AM 46.4 °F 43.5 °F 42.8 °F 87% 30.14 in 9.0 mi North 5.8 mph - N/A   Overcast
10:53 AM 48.0 °F - 44.1 °F 86% 30.15 in 10.0 mi ENE 4.6 mph - N/A   Overcast
11:53 AM 48.9 °F - 45.0 °F 86% 30.13 in 10.0 mi Calm Calm - N/A   Overcast
12:09 PM 50.0 °F - 44.6 °F 82% 30.13 in 10.0 mi Calm Calm - N/A   Overcast
12:53 PM 50.0 °F - 45.0 °F 83% 30.12 in 10.0 mi East 6.9 mph - N/A   Overcast
1:53 PM 50.0 °F - 44.1 °F 80% 30.09 in 10.0 mi NNE 8.1 mph - N/A   Overcast
2:53 PM 50.0 °F - 45.0 °F 83% 30.10 in 10.0 mi Calm Calm - N/A   Overcast
3:53 PM 50.0 °F - 45.0 °F 83% 30.10 in 10.0 mi Calm Calm - N/A   Overcast
4:53 PM 50.0 °F - 46.9 °F 89% 30.09 in 10.0 mi Calm Calm - N/A   Overcast
5:04 PM 50.0 °F - 46.4 °F 87% 30.09 in 10.0 mi NNE 4.6 mph - N/A   Overcast
5:53 PM 50.0 °F - 43.0 °F 77% 30.06 in 10.0 mi NNE 10.4 mph - 0.00 in   Overcast
6:53 PM 50.0 °F - 44.1 °F 80% 30.07 in 10.0 mi NNE 8.1 mph - N/A   Overcast
8:01 PM 48.2 °F - 42.8 °F 82% 30.08 in 10.0 mi NE 6.9 mph - N/A   Overcast
8:53 PM 48.9 °F - 43.0 °F 80% 30.08 in 10.0 mi NNE 5.8 mph - N/A   Overcast
9:53 PM 48.0 °F - 43.0 °F 83% 30.06 in 10.0 mi ENE 5.8 mph - N/A   Scattered Clouds
10:53 PM 48.9 °F - 44.1 °F 83% 30.06 in 10.0 mi ENE 5.8 mph - N/A   Overcast
11:53 PM 48.0 °F - 43.0 °F 83% 30.05 in 10.0 mi NE 6.9 mph - 0.00 in   Overcast